[Date Prev][Date Next][Thread Prev][Thread Next] - [Date Index][Thread Index][Author Index]
2 Line ISS Keps 2-13
- Subject: [sarex] 2 Line ISS Keps 2-13
- From: "Dave Larsen PhD" <doc@xxxxxxxxxxx>
- Date: Thu, 12 Feb 2004 23:42:29 -0800
ISS
1 25544U 98067A 04044.12442130 .00014308 00000-0 13649-3 0 1803
2 25544 51.6281 242.4499 0007044 157.6442 345.2588 15.67032290298697
----
Via the sarex mailing list at AMSAT.ORG courtesy of AMSAT-NA.
To unsubscribe, send "unsubscribe sarex" to Majordomo@amsat.org
AMSAT Home